Hyannis, MA

7:53 AM EST on January 24, 2018 (GMT -0500)
Barnstable Municipal-Boardman-Polando Field

Weather History for KHYA - February, 2013

Change the Weather History Date:

Sunday, February 24, 2013

  Actual Average Record
Temperature  
Mean Temperature 51 °F -  
Max Temperature 69 °F 40 °F 69 °F (2013)
Min Temperature 33 °F 25 °F 3 °F (2015)
Degree Days  
Heating Degree Days 14    
Growing Degree Days 1 (Base 50)    
Moisture  
Dew Point 39 °F    
Average Humidity 96    
Maximum Humidity 100    
Minimum Humidity 46    
Precipitation  
Precipitation 1.21 in - - ()
Sea Level Pressure  
Sea Level Pressure 29.68 in    
Wind  
Wind Speed 14 mph (NNE)    
Max Wind Speed 22 mph    
Max Gust Speed 32 mph    
Visibility 5 miles    
Events Rain , Snow    
Averages and records for this station are not official NWS values.
T = Trace of Precipitation, MM = Missing Value Source: NWS Daily Summary

Daily Weather History Graph

Daily Weather History Graph

Search for Another Location

Airport or City:

Trip Planner

Search our weather history database for the weather conditions in past years. The results will help you decide how hot, cold, wet, or windy it might be!

Date:

Astronomy

Feb. 24, 2013 Rise Set
Actual Time 6:23 AM EST 5:25 PM EST
Civil Twilight 5:55 AM EST 5:53 PM EST
Nautical Twilight 5:23 AM EST 6:26 PM EST
Astronomical Twilight 4:50 AM EST 6:58 PM EST
Moon 4:33 PM EST 5:19 AM EST
Length of Visible Light 11h 58m
Length of Day
11h 02m
Waxing Gibbous, 99% of the Moon is Illuminated
Feb 24
Waxing Gibbous
Feb 25
Full
Mar 4
Last Quarter
Mar 11
New
Mar 19
First Quarter

Hourly Weather History & Observations

Time (EST) Temp. Windchill Dew Point Humidity Pressure Visibility Wind Dir Wind Speed Gust Speed Precip Events Conditions
12:56 AM 42.1 °F 36.1 °F 39.9 °F 92% 29.80 in 8.0 mi East 10.4 mph 20.7 mph 0.06 in Rain Light Rain
1:39 AM 42.8 °F 35.8 °F 41.0 °F 93% 29.77 in 5.0 mi East 13.8 mph 19.6 mph 0.02 in Rain Light Rain
1:56 AM 43.0 °F 36.4 °F 41.0 °F 93% 29.77 in 5.0 mi East 12.7 mph 21.9 mph 0.06 in Rain Rain
2:31 AM 42.8 °F 36.2 °F 42.8 °F 100% 29.73 in 10.0 mi East 12.7 mph 21.9 mph 0.04 in Rain Light Rain
2:56 AM 43.0 °F 36.0 °F 42.1 °F 97% 29.71 in 10.0 mi East 13.8 mph 21.9 mph 0.04 in Rain Light Rain
3:56 AM 44.1 °F 37.7 °F 43.0 °F 96% 29.68 in 4.0 mi East 12.7 mph 24.2 mph 0.05 in Rain Light Rain
4:56 AM 44.1 °F 37.7 °F 43.0 °F 96% 29.65 in 4.0 mi East 12.7 mph 21.9 mph 0.07 in Rain Light Rain
5:56 AM 45.0 °F 38.9 °F 44.1 °F 97% 29.65 in 4.0 mi East 12.7 mph 20.7 mph 0.05 in Rain Light Rain
6:56 AM 45.0 °F 40.1 °F 44.1 °F 97% 29.66 in 5.0 mi ENE 9.2 mph 19.6 mph 0.03 in Rain Light Rain
7:39 AM 44.6 °F 39.2 °F 44.6 °F 100% 29.65 in 2.5 mi ENE 10.4 mph - 0.07 in Rain Rain
7:56 AM 45.0 °F 40.1 °F 44.1 °F 97% 29.64 in 4.0 mi ENE 9.2 mph 23.0 mph 0.09 in Rain Light Rain
8:56 AM 45.0 °F 38.2 °F 44.1 °F 97% 29.61 in 7.0 mi ENE 15.0 mph 21.9 mph 0.08 in Rain Light Rain
9:56 AM 45.0 °F 37.9 °F 44.1 °F 97% 29.57 in 4.0 mi ENE 16.1 mph 27.6 mph 0.10 in Rain Rain
10:47 AM 46.4 °F 39.5 °F 44.6 °F 93% 29.55 in 2.5 mi NE 17.3 mph 23.0 mph 0.06 in Rain Rain
10:52 AM 46.4 °F 39.8 °F 44.6 °F 93% 29.54 in 2.5 mi NE 16.1 mph - 0.07 in Rain Rain
10:56 AM 46.0 °F 39.6 °F 44.1 °F 93% 29.55 in 3.0 mi NE 15.0 mph - 0.08 in Rain Rain
11:56 AM 44.1 °F 37.4 °F 43.0 °F 96% 29.54 in 4.0 mi NNE 13.8 mph 20.7 mph 0.03 in Rain Light Rain
12:49 PM 42.8 °F 34.8 °F 41.0 °F 93% 29.54 in 1.5 mi North 17.3 mph - 0.04 in Rain Rain
12:56 PM 42.1 °F 33.9 °F 41.0 °F 96% 29.55 in 1.5 mi North 17.3 mph 24.2 mph 0.06 in Rain Rain
1:56 PM 39.9 °F 30.0 °F 39.0 °F 97% 29.55 in 1.5 mi NNE 21.9 mph 31.1 mph N/A Rain Rain
2:14 PM 39.2 °F 29.6 °F 39.2 °F 100% 29.57 in 3.0 mi North 19.6 mph 29.9 mph 0.08 in Rain Rain
2:56 PM 39.0 °F 28.8 °F 37.9 °F 96% 29.57 in 6.0 mi NNE 21.9 mph 32.2 mph 0.14 in Rain Light Rain
3:26 PM 37.4 °F 27.8 °F 37.4 °F 100% 29.58 in 10.0 mi North 17.3 mph 32.2 mph 0.01 in Rain Light Rain
3:42 PM 37.4 °F 28.9 °F 37.4 °F 100% 29.61 in 10.0 mi North 13.8 mph 26.5 mph 0.01 in Rain Light Rain
3:53 PM 69.8 °F - 48.2 °F 46% 29.74 in 10.0 mi SSE 17.3 mph - N/A   Mostly Cloudy
3:56 PM 37.9 °F 29.2 °F 37.0 °F 97% 29.62 in 10.0 mi North 15.0 mph 21.9 mph 0.01 in Rain Light Rain
4:56 PM 37.0 °F 27.4 °F 36.0 °F 96% 29.63 in 5.0 mi North 17.3 mph 25.3 mph 0.03 in Rain Light Rain
5:56 PM 36.0 °F 27.1 °F 35.1 °F 97% 29.66 in 6.0 mi North 13.8 mph 20.7 mph 0.03 in Snow Light Snow
6:56 PM 35.1 °F 26.9 °F 35.1 °F 100% 29.70 in 4.0 mi North 11.5 mph 20.7 mph 0.03 in Snow Light Snow
7:56 PM 34.0 °F 24.6 °F 34.0 °F 100% 29.74 in 1.8 mi North 13.8 mph 19.6 mph 0.04 in Snow Light Snow
8:56 PM 34.0 °F 26.0 °F 34.0 °F 100% 29.76 in 2.0 mi North 10.4 mph - 0.03 in Snow Light Snow
9:56 PM 34.0 °F 25.0 °F 34.0 °F 100% 29.78 in 2.0 mi North 12.7 mph - 0.04 in Snow Light Snow
10:03 PM 33.8 °F 24.3 °F 33.8 °F 100% 29.78 in 3.0 mi North 13.8 mph 20.7 mph 0.01 in Snow Light Snow
10:14 PM 33.8 °F 24.3 °F 33.8 °F 100% 29.77 in 2.5 mi North 13.8 mph 20.7 mph 0.01 in Snow Light Snow
10:24 PM 33.8 °F 24.3 °F 33.8 °F 100% 29.78 in 3.0 mi North 13.8 mph 24.2 mph 0.02 in Snow Light Snow
10:56 PM 35.1 °F 26.4 °F 34.0 °F 96% 29.80 in 5.0 mi North 12.7 mph 20.7 mph 0.04 in Snow Light Snow
11:24 PM 35.6 °F 25.5 °F 33.8 °F 93% 29.80 in 2.5 mi North 17.3 mph 23.0 mph 0.02 in Snow Light Snow
11:37 PM 35.6 °F 25.9 °F 33.8 °F 93% 29.81 in 4.0 mi North 16.1 mph 27.6 mph 0.02 in Snow Light Snow
11:54 PM 33.8 °F 23.9 °F 33.8 °F 100% 29.81 in 2.5 mi North 15.0 mph 26.5 mph 0.02 in Snow Light Snow
11:56 PM 34.0 °F 25.0 °F 33.1 °F 96% 29.82 in 2.0 mi North 12.7 mph 26.5 mph 0.02 in Snow Light Snow